Hourly Data Report for August 13, 2019

TORONTO CITY
ONTARIO
Current Station Operator: ECCC - MSC

43°40'00.000" N
79°24'00.000" W
112.50 m
6158355
71508
XTO

Download Data

Hourly Data (August 2019)
Hourly Data Report for August 13, 2019
TIME
LST
Temp Definition
°C
Dew Point Definition
°C
Rel Hum Definition
%
Precip. Amount Definition
mm

Wind Dir Definition
10's deg

Wind Spd Definition
km/h
Visibility Definition
km
Stn Press Definition
kPa
Hmdx Definition


Wind Chill Definition


Weather Definition


00:00 21.1 18.5 85 0.0       99.57 27   LegendNANA
01:00 20.9 18.1 84 0.0       99.54 27   LegendNANA
02:00 21.5 17.6 78 0.0       99.52 27   LegendNANA
03:00 21.2 15.5 70 0.0       99.51 25   LegendNANA
04:00 21.0 15.5 71 0.0       99.48 25   LegendNANA
05:00 20.5 15.7 74 0.0       99.49 25   LegendNANA
06:00 20.4 16.3 77 0.0       99.53 25   LegendNANA
07:00 21.3 16.4 74 0.0       99.57 26   LegendNANA
08:00 22.3 16.7 71 0.0       99.62 27   LegendNANA
09:00 23.0 17.2 70 0.0       99.61 28   LegendNANA
10:00 24.7 15.3 56 0.0       99.59 29   LegendNANA
11:00 25.3 11.6 42 0.0       99.60 27   LegendNANA
12:00 26.2 13.5 45 0.0       99.58 29   LegendNANA
13:00 26.4 14.0 46 0.0       99.54 30   LegendNANA
14:00 27.0 13.2 43 0.0       99.49 30   LegendNANA
15:00 26.9 12.0 40 0.0       99.46 29   LegendNANA
16:00 26.5 11.5 39 0.0       99.45 29   LegendNANA
17:00 25.7 11.9 42 0.0       99.49 28   LegendNANA
18:00 25.1 12.4 45 0.0       99.55 28   LegendNANA
19:00 24.6 10.9 42 0.0       99.58 26   LegendNANA
20:00 23.6 12.9 51 0.0       99.61 26   LegendNANA
21:00 23.7 9.8 41 0.0       99.68 25   LegendNANA
22:00 23.7 8.9 39 0.0       99.73     LegendNANA
23:00 22.7 9.7 43 0.0       99.73     LegendNANA

Notes on Data Quality.

Legend

  • E = Estimated
  • M = Missing
  • NA = Not Available*
  • [empty] = Indicates an unobserved value
Date modified: